Regional Weather Roundup
Issued by NWS Huntsville, AL

Home | Current Version | Previous Version | Text Only | Print | Product List | Glossary On
Versions: 1 2 3 4 5 6 7 8 9 10 11 12 13 14 15 16 17 18 19 20 21 22 23 24 25 26 27
000
ASUS44 KHUN 301210
RWRHUN

WEATHER ROUNDUP FOR THE TENNESSEE VALLEY
NATIONAL WEATHER SERVICE HUNTSVILLE AL
700 AM CDT THU MAR 30 2017

ALZ001>004-301300-
NORTHWEST ALABAMA

CITY           SKY/WX    TMP DP  RH WIND       PRES   REMARKS
COURTLAND HCN    N/A     66 N/A N/A S12         N/A
RUSSELLVILLE     N/A     66 N/A N/A MISG        N/A
SHOALS AIRPORT MOCLDY    68  60  75 S12       29.83F
6HR MIN TEMP:  67; 6HR MAX TEMP:  73;

SHOALS TVA RES   N/A     68 N/A N/A MISG        N/A
$$

ALZ005>007-016-301300-
NORTH CENTRAL ALABAMA

CITY           SKY/WX    TMP DP  RH WIND       PRES   REMARKS
CULLMAN AG STN   N/A     64 N/A N/A SW7         N/A
DECATUR AP     CLOUDY    65  61  87 S12       29.90R
6HR MIN TEMP:  62; 6HR MAX TEMP:  66;

HUNTSVILLE AP  CLOUDY    66  61  84 S8        29.91R
6HR MIN TEMP:  64; 6HR MAX TEMP:  70;

MERIDIANVILLE  MOCLDY    64  55  72 S10G16    29.92R
REDSTONE ARSN  CLOUDY    65  60  83 S6        29.91R
VINEMONT AP    PTSUNNY   63  59  88 S10       29.95R
$$

ALZ008>010-301300-
NORTHEAST ALABAMA

CITY           SKY/WX    TMP DP  RH WIND       PRES   REMARKS
ALBERTVILLE    CLOUDY    63  63 100 SW9       29.95R
FORT PAYNE     CLOUDY    61  54  77 SW3       29.95R
SCOTTSBORO AP  CLOUDY    64  57  77 SW6       29.95R
SCOTTSBORO HCN   N/A     61 N/A N/A MISG        N/A
VALLEY HEAD      N/A     63 N/A N/A MISG        N/A
$$

TNZ076-096-097-301300-
SOUTHEASTERN MIDDLE TENNESSEE

CITY           SKY/WX    TMP DP  RH WIND       PRES   REMARKS
TULLAHOMA      CLEAR     64  55  72 S10       29.91R
WINCHESTER     CLEAR     66  54  63 S7        29.92R
$$

...SURROUNDING SITES...

CITY           SKY/WX    TMP DP  RH WIND       PRES   REMARKS
ATLANTA        MOCLDY    63  58  83 E3        29.98R
ANNISTON       CLOUDY    59  58  96 CALM      29.97R
BIRMINGHAM     CLOUDY    66  61  84 S7        29.97S
CHATTANOOGA    CLOUDY    62  57  83 CALM      29.94R
CORINTH        FAIR      64  57  77 SE10      29.73F
DALTON         CLOUDY    63  59  88 S3        29.96R
GADSDEN        MOCLDY    63  60  90 SW3       29.97R
GOLDEN TRNGL   CLEAR     64  54  68 S16G25    29.82F
HALEYVILLE     FAIR      63  60  90 S9        29.91S
JACKSON TN     CLOUDY    71  52  50 S23G37    29.71F
MEMPHIS        CLOUDY    66  56  70 SW10      29.71R
NASHVILLE      CLOUDY    69  57  65 S15       29.83S
OXFORD MS      FAIR      64  52  63 SW15G23   29.77R
ROME           CLOUDY    61  57  87 CALM      29.95R
SAVANNAH       CLEAR     68  55  64 SE12G18   29.71F
TUPELO         CLOUDY    69  51  52 S21G28    29.76F
TUSCALOOSA     CLOUDY    65  63  93 S6        29.93R
$$

...GULF COAST WEATHER...

CITY           SKY/WX    TMP DP  RH WIND       PRES   REMARKS
GULFPORT       MOCLDY    73  70  90 SE3       29.89F
PASCAGOULA     MOCLDY    73  68  84 CALM      29.92R
MOBILE         CLOUDY    70  67  90 CALM      29.94R FOG
GULF SHORES    PTSUNNY   70  70 100 S8        29.94R
PENSACOLA      CLOUDY    71  68  90 S5        29.94R
DESTIN         MOCLDY    72  72 100 SE3       29.95R
PANAMA CITY    CLEAR     65  63  94 SE6       29.96R
APPALACHICOLA  CLOUDY    70  65  84 S8        29.96R
$$





USA.gov is the U.S. government's official web portal to all federal, state and local government web resources and services.